Weather History for KRMN - March, 2013

Change the Weather History Date:

Friday, March 15, 2013

  Actual Average (KNYG) Record (KNYG)
Temperature  
Mean Temperature 40 °F -  
Max Temperature 58 °F 51 °F 86 °F (2012)
Min Temperature 22 °F 34 °F 28 °F (2005)
Degree Days  
Heating Degree Days 25    
Moisture  
Dew Point 25 °F    
Average Humidity 61    
Maximum Humidity 92    
Minimum Humidity 29    
Precipitation  
Precipitation 0.00 in - - ()
Sea Level Pressure  
Sea Level Pressure 30.01 in    
Wind  
Wind Speed 2 mph (SW)    
Max Wind Speed 15 mph    
Max Gust Speed 22 mph    
Visibility 10 miles    
Events      
Averages and records for this station are not official NWS values.
T = Trace of Precipitation, MM = Missing Value Source: NWS Daily Summary

Daily Weather History Graph

Daily Weather History Graph

Search for Another Location

Airport or City:

Trip Planner

Search our weather history database for the weather conditions in past years. The results will help you decide how hot, cold, wet, or windy it might be!

Date:

Astronomy

Mar. 15, 2013 Rise Set
Actual Time 7:20 AM EDT 7:17 PM EDT
Civil Twilight 6:54 AM EDT 7:43 PM EDT
Nautical Twilight 6:23 AM EDT 8:14 PM EDT
Astronomical Twilight 5:52 AM EDT 8:45 PM EDT
Moon 9:13 AM EDT (3/15) 11:25 PM EDT (3/15)
Length of Visible Light 12h 49m
Length of Day
11h 56m
Waxing Crescent, 15% of the Moon is Illuminated
Mar 15
Waxing Crescent
Mar 19
First Quarter
Mar 27
Full
Apr 3
Last Quarter
Apr 10
New

Hourly Weather History & Observations

Time (EDT) Temp. Windchill Dew Point Humidity Pressure Visibility Wind Dir Wind Speed Gust Speed Precip Events Conditions
12:15 AM 28.0 °F - 21.6 °F 77% 30.15 in 10.0 mi Calm Calm - N/A   Clear
12:35 AM 28.0 °F - 21.0 °F 75% 30.15 in 10.0 mi Calm Calm - N/A   Clear
12:55 AM 27.5 °F - 20.7 °F 75% 30.15 in 10.0 mi Calm Calm - N/A   Clear
1:15 AM 25.9 °F - 21.6 °F 84% 30.15 in 10.0 mi Calm Calm - N/A   Clear
1:35 AM 27.3 °F 22.0 °F 20.1 °F 74% 30.15 in 10.0 mi West 4.6 mph - N/A   Clear
1:55 AM 28.2 °F - 19.4 °F 70% 30.15 in 10.0 mi Calm Calm - N/A   Clear
2:15 AM 25.5 °F - 19.9 °F 79% 30.15 in 10.0 mi Calm Calm - N/A   Clear
2:35 AM 26.8 °F - 21.2 °F 79% 30.15 in 10.0 mi Calm Calm - N/A   Clear
2:55 AM 27.1 °F - 21.6 °F 80% 30.14 in 10.0 mi Calm Calm - N/A   Clear
3:15 AM 24.1 °F - 20.1 °F 85% 30.14 in 10.0 mi Calm Calm - N/A   Clear
3:35 AM 25.0 °F - 20.8 °F 84% 30.14 in 10.0 mi Calm Calm - N/A   Clear
3:55 AM 27.3 °F - 19.9 °F 74% 30.13 in 10.0 mi Calm Calm - N/A   Clear
4:15 AM 25.3 °F - 20.3 °F 81% 30.13 in 10.0 mi Calm Calm - N/A   Clear
4:35 AM 23.0 °F - 19.9 °F 88% 30.13 in 10.0 mi Calm Calm - N/A   Clear
4:55 AM 24.6 °F - 20.1 °F 83% 30.13 in 10.0 mi Calm Calm - N/A   Clear
5:15 AM 24.8 °F - 21.4 °F 87% 30.13 in 10.0 mi Calm Calm - N/A   Clear
5:35 AM 23.0 °F - 20.3 °F 89% 30.14 in 10.0 mi Calm Calm - N/A   Clear
5:55 AM 23.2 °F - 20.3 °F 89% 30.14 in 10.0 mi Calm Calm - N/A   Clear
6:15 AM 23.0 °F - 20.1 °F 89% 30.14 in 10.0 mi Calm Calm - N/A   Clear
6:35 AM 23.7 °F - 20.1 °F 86% 30.13 in 10.0 mi Calm Calm - N/A   Clear
6:55 AM 22.3 °F - 19.9 °F 91% 30.14 in 10.0 mi Calm Calm - N/A   Clear
7:15 AM 22.1 °F - 20.1 °F 92% 30.14 in 10.0 mi Calm Calm - N/A   Clear
7:35 AM 23.4 °F - 20.5 °F 89% 30.13 in 10.0 mi Calm Calm - N/A   Clear
7:55 AM 23.7 °F - 21.2 °F 90% 30.13 in 10.0 mi Calm Calm - N/A   Clear
8:15 AM 25.2 °F - 22.8 °F 91% 30.13 in 10.0 mi Calm Calm - N/A   Clear
8:35 AM 25.7 °F - 23.2 °F 90% 30.13 in 10.0 mi Calm Calm - N/A   Clear
8:55 AM 28.8 °F - 25.9 °F 89% 30.13 in 10.0 mi Calm Calm - N/A   Clear
9:15 AM 31.1 °F - 26.2 °F 82% 30.12 in 10.0 mi Calm Calm - N/A   Clear
9:35 AM 30.0 °F - 26.4 °F 86% 30.12 in 10.0 mi Calm Calm - N/A   Clear
9:55 AM 32.5 °F - 25.3 °F 75% 30.12 in 10.0 mi Calm Calm - N/A   Clear
10:15 AM 37.4 °F 34.9 °F 24.4 °F 60% 30.10 in 10.0 mi SSW 3.5 mph - N/A   Clear
10:35 AM 42.3 °F 36.8 °F 22.1 °F 45% 30.09 in 10.0 mi SSW 9.2 mph - N/A   Clear
11:55 AM 48.9 °F - 18.9 °F 30% 30.04 in 10.0 mi SSW 11.5 mph 16.1 mph N/A   Clear
12:15 PM 49.6 °F - 18.7 °F 29% 30.04 in 10.0 mi SSW 9.2 mph 18.4 mph N/A   Clear
12:35 PM 50.7 °F - 19.8 °F 30% 30.02 in 10.0 mi SSW 12.7 mph 18.4 mph N/A   Clear
12:55 PM 51.3 °F - 20.3 °F 30% 30.01 in 10.0 mi WSW 10.4 mph 19.6 mph N/A   Clear
1:15 PM 52.5 °F - 21.2 °F 29% 30.00 in 10.0 mi SW 11.5 mph 18.4 mph N/A   Clear
1:35 PM 53.4 °F - 22.6 °F 30% 29.99 in 10.0 mi SW 11.5 mph 18.4 mph N/A   Clear
1:55 PM 54.3 °F - 23.4 °F 30% 29.98 in 10.0 mi WSW 11.5 mph 17.3 mph N/A   Clear
2:15 PM 54.7 °F - 24.3 °F 31% 29.96 in 10.0 mi SW 6.9 mph 17.3 mph N/A   Clear
2:35 PM 55.4 °F - 25.0 °F 31% 29.95 in 10.0 mi WSW 15.0 mph 21.9 mph N/A   Clear
2:55 PM 56.3 °F - 25.5 °F 31% 29.93 in 10.0 mi SW 6.9 mph 19.6 mph N/A   Clear
3:15 PM 57.6 °F - 27.0 °F 31% 29.92 in 10.0 mi SSW 12.7 mph 17.3 mph N/A   Clear
3:35 PM 56.7 °F - 26.8 °F 32% 29.90 in 10.0 mi SW 9.2 mph 19.6 mph N/A   Clear
3:55 PM 57.9 °F - 28.4 °F 32% 29.89 in 10.0 mi SSW 9.2 mph - N/A   Clear
4:15 PM 58.1 °F - 28.4 °F 32% 29.88 in 10.0 mi SW 8.1 mph 18.4 mph N/A   Clear
4:35 PM 58.1 °F - 28.8 °F 33% 29.87 in 10.0 mi SW 10.4 mph 16.1 mph N/A   Clear
4:55 PM 58.3 °F - 29.8 °F 34% 29.87 in 10.0 mi SW 9.2 mph 17.3 mph N/A   Clear
5:15 PM 58.3 °F - 30.2 °F 34% 29.86 in 10.0 mi SW 12.7 mph - N/A   Clear
5:35 PM 58.5 °F - 30.4 °F 34% 29.85 in 10.0 mi SW 10.4 mph 19.6 mph N/A   Clear
5:55 PM 58.1 °F - 30.9 °F 36% 29.85 in 10.0 mi SW 9.2 mph - N/A   Clear
6:15 PM 57.6 °F - 30.9 °F 36% 29.85 in 10.0 mi SW 6.9 mph - N/A   Clear
6:35 PM 57.2 °F - 31.3 °F 37% 29.84 in 10.0 mi SSW 9.2 mph 16.1 mph N/A   Clear
6:55 PM 56.7 °F - 31.3 °F 38% 29.84 in 10.0 mi SW 5.8 mph - N/A   Clear
7:15 PM 55.8 °F - 31.8 °F 40% 29.84 in 10.0 mi SSW 5.8 mph - N/A   Clear
7:35 PM 54.9 °F - 32.0 °F 42% 29.84 in 10.0 mi SSW 4.6 mph - N/A   Clear
7:55 PM 54.3 °F - 32.0 °F 43% 29.85 in 10.0 mi Calm Calm - N/A   Clear
8:15 PM 54.0 °F - 32.0 °F 43% 29.85 in 10.0 mi Calm Calm - N/A   Clear
8:35 PM 52.5 °F - 32.2 °F 46% 29.85 in 10.0 mi Calm Calm - N/A   Clear
8:55 PM 50.2 °F - 32.7 °F 51% 29.85 in 10.0 mi Calm Calm - N/A   Clear
9:15 PM 48.7 °F - 33.1 °F 55% 29.85 in 10.0 mi Calm Calm - N/A   Clear
9:35 PM 45.5 °F - 32.7 °F 61% 29.85 in 10.0 mi Calm Calm - N/A   Clear
9:55 PM 43.3 °F - 32.5 °F 66% 29.85 in 10.0 mi Calm Calm - N/A   Clear
10:15 PM 42.1 °F - 32.5 °F 69% 29.85 in 10.0 mi Calm Calm - N/A   Clear
10:35 PM 41.9 °F - 32.9 °F 70% 29.85 in 10.0 mi Calm Calm - N/A   Clear
10:55 PM 41.0 °F - 32.7 °F 72% 29.85 in 10.0 mi Calm Calm - N/A   Clear
11:15 PM 41.0 °F - 32.4 °F 71% 29.85 in 10.0 mi Calm Calm - N/A   Clear
11:35 PM 38.3 °F - 32.4 °F 79% 29.85 in 10.0 mi Calm Calm - N/A   Clear
11:55 PM 37.4 °F - 32.2 °F 81% 29.85 in 10.0 mi Calm Calm - N/A   Clear